VIV4048 MMMY-MMTO

Flight info

Callsign VIV4048
Flight time 0h 58m
Altitude 33000
Route MTY1A MTY DCT KERGA DCT AVURI UQ101 ITLAS ITLAS2A
Aircraft A320/M-SDE3FGHIRWY/LB1

Departure

Time 2026-05-04 02:22
Airport Monterrey International Airport (MMMY)

Arrival

Time 2026-05-04 03:21
Airport Adolfo López Mateos International Airport (MMTO)
Time Latitude Longitude Altitude Speed Heading
2026-05-04 01:46 25.77906 -100.11391 1278 ft 0 kts 211°
2026-05-04 02:15 25.77907 -100.11390 1277 ft 2 kts 211°
2026-05-04 02:15 25.77929 -100.11375 1278 ft 4 kts 211°
2026-05-04 02:15 25.77952 -100.11360 1279 ft 4 kts 219°
2026-05-04 02:16 25.77969 -100.11338 1277 ft 4 kts 248°
2026-05-04 02:16 25.77971 -100.11313 1277 ft 2 kts 299°
2026-05-04 02:16 25.77968 -100.11307 1278 ft 0 kts 301°
2026-05-04 02:19 25.77999 -100.11364 1278 ft 16 kts 300°
2026-05-04 02:19 25.78075 -100.11505 1281 ft 23 kts 302°
2026-05-04 02:19 25.78158 -100.11651 1283 ft 20 kts 302°
2026-05-04 02:19 25.78233 -100.11785 1286 ft 20 kts 303°
2026-05-04 02:20 25.78290 -100.11798 1287 ft 6 kts 36°
2026-05-04 02:20 25.78333 -100.11768 1288 ft 9 kts 31°
2026-05-04 02:20 25.78347 -100.11758 1288 ft 0 kts 32°
2026-05-04 02:21 25.78371 -100.11741 1289 ft 12 kts 32°
2026-05-04 02:21 25.78385 -100.11657 1288 ft 14 kts 114°
2026-05-04 02:21 25.78253 -100.11413 1282 ft 76 kts 122°
2026-05-04 02:22 25.77830 -100.10651 1276 ft 150 kts 122°
2026-05-04 02:22 25.77234 -100.09615 1950 ft 160 kts 123°
2026-05-04 02:22 25.76640 -100.08518 2740 ft 177 kts 120°
2026-05-04 02:22 25.76001 -100.07247 3424 ft 201 kts 120°
2026-05-04 02:23 25.75282 -100.05804 4149 ft 226 kts 120°
2026-05-04 02:23 25.74474 -100.04203 4969 ft 247 kts 123°
2026-05-04 02:23 25.73296 -100.02807 5992 ft 253 kts 148°
2026-05-04 02:23 25.71633 -100.02150 7029 ft 260 kts 174°
2026-05-04 02:24 25.69799 -100.02165 8005 ft 268 kts 181°
2026-05-04 02:24 25.67899 -100.02251 8974 ft 277 kts 182°
2026-05-04 02:24 25.65941 -100.02350 9943 ft 286 kts 184°
2026-05-04 02:24 25.63886 -100.02454 10323 ft 307 kts 184°
2026-05-04 02:25 25.61700 -100.02555 10704 ft 320 kts 184°
2026-05-04 02:25 25.59452 -100.02652 11316 ft 325 kts 184°
2026-05-04 02:25 25.57181 -100.02747 11982 ft 328 kts 185°
2026-05-04 02:25 25.54893 -100.02841 12640 ft 332 kts 185°
2026-05-04 02:26 25.52572 -100.02936 13297 ft 335 kts 186°
2026-05-04 02:26 25.50234 -100.03035 13941 ft 339 kts 186°
2026-05-04 02:26 25.47863 -100.03134 14486 ft 343 kts 187°
2026-05-04 02:26 25.45459 -100.03231 15014 ft 348 kts 187°
2026-05-04 02:27 25.43031 -100.03330 15527 ft 352 kts 187°
2026-05-04 02:27 25.40563 -100.03432 16048 ft 357 kts 187°
2026-05-04 02:27 25.38062 -100.03535 16552 ft 361 kts 187°
2026-05-04 02:27 25.35537 -100.03639 17017 ft 367 kts 188°
2026-05-04 02:28 25.32969 -100.03749 17523 ft 370 kts 188°
2026-05-04 02:28 25.30377 -100.03858 18028 ft 375 kts 188°
2026-05-04 02:28 25.27794 -100.03967 18489 ft 379 kts 188°
2026-05-04 02:28 25.25155 -100.04076 18950 ft 382 kts 188°
2026-05-04 02:29 25.22491 -100.04184 19434 ft 384 kts 188°
2026-05-04 02:29 25.19815 -100.04292 19933 ft 385 kts 188°
2026-05-04 02:29 25.17134 -100.04402 20458 ft 387 kts 187°
2026-05-04 02:29 25.14440 -100.04515 20935 ft 389 kts 187°
2026-05-04 02:30 25.11723 -100.04627 21434 ft 391 kts 187°
2026-05-04 02:30 25.09003 -100.04735 21934 ft 392 kts 187°
2026-05-04 02:30 25.06270 -100.04842 22383 ft 394 kts 187°
2026-05-04 02:30 25.03515 -100.04952 22852 ft 397 kts 187°
2026-05-04 02:31 25.00752 -100.05066 23293 ft 399 kts 187°
2026-05-04 02:31 24.97967 -100.05182 23720 ft 401 kts 187°
2026-05-04 02:31 24.95172 -100.05299 24104 ft 404 kts 187°
2026-05-04 02:31 24.92352 -100.05416 24467 ft 407 kts 187°
2026-05-04 02:32 24.89521 -100.05533 24836 ft 409 kts 187°
2026-05-04 02:32 24.86667 -100.05648 25181 ft 411 kts 186°
2026-05-04 02:32 24.83798 -100.05760 25430 ft 415 kts 187°
2026-05-04 02:32 24.80905 -100.05876 25857 ft 416 kts 187°
2026-05-04 02:33 24.78010 -100.05996 26213 ft 418 kts 187°
2026-05-04 02:33 24.75091 -100.06118 26574 ft 421 kts 187°
2026-05-04 02:33 24.72155 -100.06235 26936 ft 423 kts 187°
2026-05-04 02:33 24.69208 -100.06338 27281 ft 426 kts 187°
2026-05-04 02:34 24.66235 -100.06432 27604 ft 428 kts 186°
2026-05-04 02:34 24.63257 -100.06521 27959 ft 430 kts 186°
2026-05-04 02:34 24.60253 -100.06611 28311 ft 433 kts 186°
2026-05-04 02:34 24.57232 -100.06707 28663 ft 435 kts 186°
2026-05-04 02:35 24.54203 -100.06808 29014 ft 438 kts 187°
2026-05-04 02:35 24.51148 -100.06915 29366 ft 440 kts 187°
2026-05-04 02:35 24.48074 -100.07022 29717 ft 443 kts 187°
2026-05-04 02:35 24.45029 -100.07123 30068 ft 446 kts 187°
2026-05-04 02:36 24.41918 -100.07225 30380 ft 448 kts 187°
2026-05-04 02:36 24.38795 -100.07329 30666 ft 451 kts 187°
2026-05-04 02:36 24.35642 -100.07432 30963 ft 454 kts 187°
2026-05-04 02:36 24.32479 -100.07532 31263 ft 457 kts 187°
2026-05-04 02:37 24.29285 -100.07632 31552 ft 460 kts 187°
2026-05-04 02:37 24.26082 -100.07735 31963 ft 460 kts 187°
2026-05-04 02:37 24.22887 -100.07839 32376 ft 460 kts 187°
2026-05-04 02:37 24.19679 -100.07944 32780 ft 461 kts 187°
2026-05-04 02:38 24.16463 -100.08051 33042 ft 463 kts 187°
2026-05-04 02:38 24.13271 -100.08154 33097 ft 454 kts 187°
2026-05-04 02:38 24.10166 -100.08245 33100 ft 438 kts 187°
2026-05-04 02:38 24.07168 -100.08333 33100 ft 426 kts 188°
2026-05-04 02:39 24.01246 -100.08529 33099 ft 432 kts 188°
2026-05-04 02:39 23.95099 -100.08756 33100 ft 453 kts 187°
2026-05-04 02:40 23.88669 -100.08973 33093 ft 473 kts 187°
2026-05-04 02:40 23.81969 -100.09187 33096 ft 491 kts 187°
2026-05-04 02:41 23.75085 -100.09410 33084 ft 496 kts 187°
2026-05-04 02:41 23.68168 -100.09623 33084 ft 499 kts 186°
2026-05-04 02:42 23.61232 -100.09849 33083 ft 499 kts 186°
2026-05-04 02:42 23.54340 -100.10078 33088 ft 498 kts 186°
2026-05-04 02:43 23.47410 -100.10302 33085 ft 498 kts 186°
2026-05-04 02:43 23.40469 -100.10524 33081 ft 498 kts 186°
2026-05-04 02:44 23.33545 -100.10747 33105 ft 498 kts 186°
2026-05-04 02:44 23.26632 -100.10973 33120 ft 497 kts 186°
2026-05-04 02:45 23.19714 -100.11203 33126 ft 497 kts 186°
2026-05-04 02:45 23.12810 -100.11420 33125 ft 496 kts 186°
2026-05-04 02:46 23.05913 -100.11630 33110 ft 496 kts 186°
2026-05-04 02:46 22.99022 -100.11856 33122 ft 495 kts 186°
2026-05-04 02:47 22.92125 -100.12086 33128 ft 495 kts 186°
2026-05-04 02:47 22.85241 -100.12312 33130 ft 495 kts 186°
2026-05-04 02:48 22.78359 -100.12536 33132 ft 495 kts 186°
2026-05-04 02:48 22.71464 -100.12755 33115 ft 495 kts 186°
2026-05-04 02:49 22.65739 -100.12937 33118 ft 496 kts 186°
2026-05-04 02:49 22.58843 -100.13160 33119 ft 496 kts 186°
2026-05-04 02:50 22.51933 -100.13381 33122 ft 496 kts 186°
2026-05-04 02:50 22.45029 -100.13594 33112 ft 496 kts 185°
2026-05-04 02:51 22.38126 -100.13815 33123 ft 497 kts 186°
2026-05-04 02:51 22.31212 -100.14042 33128 ft 497 kts 186°
2026-05-04 02:52 22.24305 -100.14261 33134 ft 497 kts 185°
2026-05-04 02:52 22.17398 -100.14475 33135 ft 497 kts 185°
2026-05-04 02:53 22.10480 -100.14691 33130 ft 497 kts 186°
2026-05-04 02:53 22.03613 -100.14913 33133 ft 497 kts 186°
2026-05-04 02:54 21.96701 -100.15138 33139 ft 497 kts 186°
2026-05-04 02:54 21.89787 -100.15358 33143 ft 497 kts 186°
2026-05-04 02:55 21.79412 -100.15685 33136 ft 497 kts 185°
2026-05-04 02:56 21.72502 -100.15897 33150 ft 497 kts 185°
2026-05-04 02:56 21.65580 -100.16116 33153 ft 497 kts 185°
2026-05-04 02:57 21.58670 -100.16333 33157 ft 497 kts 185°
2026-05-04 02:57 21.51761 -100.16551 33153 ft 497 kts 185°
2026-05-04 02:58 21.44847 -100.16772 33143 ft 497 kts 185°
2026-05-04 02:58 21.37919 -100.16992 33146 ft 498 kts 185°
2026-05-04 02:59 21.30998 -100.17207 33155 ft 498 kts 185°
2026-05-04 02:59 21.24075 -100.17427 33154 ft 498 kts 185°
2026-05-04 03:00 21.17140 -100.17645 33148 ft 498 kts 185°
2026-05-04 03:00 21.10209 -100.17859 33151 ft 498 kts 185°
2026-05-04 03:01 21.03320 -100.18066 33140 ft 498 kts 185°
2026-05-04 03:01 20.96390 -100.18289 33139 ft 498 kts 185°
2026-05-04 03:02 20.89460 -100.18503 33197 ft 498 kts 185°
2026-05-04 03:02 20.82533 -100.18714 33230 ft 498 kts 185°
2026-05-04 03:03 20.75599 -100.18476 33304 ft 504 kts 170°
2026-05-04 03:03 20.72221 -100.17422 32983 ft 506 kts 165°
2026-05-04 03:03 20.68928 -100.16262 32718 ft 489 kts 163°
2026-05-04 03:03 20.65789 -100.15108 32504 ft 467 kts 163°
2026-05-04 03:04 20.62756 -100.13973 31790 ft 458 kts 162°
2026-05-04 03:04 20.59758 -100.12854 30851 ft 457 kts 162°
2026-05-04 03:04 20.56750 -100.11743 29900 ft 455 kts 162°
2026-05-04 03:04 20.53778 -100.10660 29557 ft 447 kts 162°
2026-05-04 03:05 20.50846 -100.09603 29054 ft 443 kts 162°
2026-05-04 03:05 20.47933 -100.08558 28605 ft 439 kts 162°
2026-05-04 03:05 20.45056 -100.07527 28142 ft 435 kts 162°
2026-05-04 03:05 20.42193 -100.06498 27672 ft 432 kts 162°
2026-05-04 03:06 20.39349 -100.05473 27195 ft 430 kts 162°
2026-05-04 03:06 20.36527 -100.04455 26650 ft 428 kts 162°
2026-05-04 03:06 20.33710 -100.03437 26190 ft 426 kts 162°
2026-05-04 03:06 20.30943 -100.02436 25729 ft 425 kts 162°
2026-05-04 03:07 20.28106 -100.01411 25248 ft 425 kts 162°
2026-05-04 03:07 20.25352 -100.00420 24877 ft 421 kts 162°
2026-05-04 03:07 20.22534 -99.99409 24409 ft 420 kts 162°
2026-05-04 03:07 20.19818 -99.98436 24077 ft 416 kts 162°
2026-05-04 03:08 20.17048 -99.97442 23671 ft 412 kts 162°
2026-05-04 03:08 20.14389 -99.96485 22878 ft 407 kts 162°
2026-05-04 03:08 20.11714 -99.95519 22341 ft 404 kts 162°
2026-05-04 03:08 20.09069 -99.94564 21887 ft 401 kts 162°
2026-05-04 03:09 20.06440 -99.93617 21474 ft 397 kts 162°
2026-05-04 03:09 20.03857 -99.92687 20897 ft 387 kts 162°
2026-05-04 03:09 20.01351 -99.91786 20476 ft 373 kts 162°
2026-05-04 03:09 19.98937 -99.90920 20045 ft 362 kts 162°
2026-05-04 03:10 19.96560 -99.90068 19614 ft 358 kts 162°
2026-05-04 03:10 19.94211 -99.89226 19033 ft 358 kts 162°
2026-05-04 03:10 19.91855 -99.88383 18465 ft 353 kts 162°
2026-05-04 03:10 19.89542 -99.87554 18004 ft 350 kts 162°
2026-05-04 03:11 19.87243 -99.86731 17588 ft 349 kts 162°
2026-05-04 03:11 19.84945 -99.85909 17163 ft 348 kts 162°
2026-05-04 03:11 19.82675 -99.85094 16742 ft 340 kts 162°
2026-05-04 03:11 19.80463 -99.84301 16337 ft 330 kts 162°
2026-05-04 03:12 19.78318 -99.83534 15970 ft 321 kts 162°
2026-05-04 03:12 19.76215 -99.82782 15601 ft 319 kts 162°
2026-05-04 03:12 19.74107 -99.82028 15219 ft 320 kts 162°
2026-05-04 03:12 19.71996 -99.81274 14845 ft 321 kts 162°
2026-05-04 03:13 19.69871 -99.80513 14455 ft 323 kts 162°
2026-05-04 03:13 19.67771 -99.79761 14074 ft 324 kts 163°
2026-05-04 03:13 19.65632 -99.78998 13664 ft 324 kts 163°
2026-05-04 03:13 19.63506 -99.78241 13323 ft 317 kts 163°
2026-05-04 03:14 19.61451 -99.77506 13267 ft 306 kts 163°
2026-05-04 03:14 19.59465 -99.76792 13180 ft 296 kts 163°
2026-05-04 03:14 19.57563 -99.76088 13064 ft 282 kts 158°
2026-05-04 03:14 19.55954 -99.74982 13008 ft 273 kts 138°
2026-05-04 03:15 19.54823 -99.73414 12812 ft 267 kts 117°
2026-05-04 03:15 19.54265 -99.71570 12516 ft 258 kts 101°
2026-05-04 03:15 19.53955 -99.69769 12313 ft 239 kts 102°
2026-05-04 03:15 19.53666 -99.68123 12094 ft 216 kts 101°
2026-05-04 03:16 19.53275 -99.66704 11892 ft 187 kts 117°
2026-05-04 03:16 19.52594 -99.65625 11703 ft 169 kts 135°
2026-05-04 03:16 19.51737 -99.64855 11565 ft 160 kts 149°
2026-05-04 03:16 19.50747 -99.64339 11464 ft 160 kts 158°
2026-05-04 03:17 19.49722 -99.63874 11322 ft 162 kts 158°
2026-05-04 03:17 19.48684 -99.63400 11175 ft 164 kts 158°
2026-05-04 03:17 19.47632 -99.62920 11030 ft 165 kts 158°
2026-05-04 03:17 19.46573 -99.62437 10882 ft 166 kts 158°
2026-05-04 03:18 19.45509 -99.61954 10733 ft 165 kts 158°
2026-05-04 03:18 19.44455 -99.61476 10542 ft 165 kts 158°
2026-05-04 03:18 19.43397 -99.60997 10331 ft 165 kts 158°
2026-05-04 03:18 19.42344 -99.60520 10112 ft 163 kts 158°
2026-05-04 03:19 19.41307 -99.60050 9885 ft 161 kts 158°
2026-05-04 03:19 19.40291 -99.59589 9706 ft 158 kts 158°
2026-05-04 03:19 19.39282 -99.59131 9496 ft 157 kts 157°
2026-05-04 03:19 19.38290 -99.58682 9236 ft 156 kts 156°
2026-05-04 03:20 19.37301 -99.58229 8994 ft 155 kts 155°
2026-05-04 03:20 19.36332 -99.57784 8760 ft 148 kts 156°
2026-05-04 03:20 19.35392 -99.57372 8522 ft 144 kts 157°
2026-05-04 03:20 19.34654 -99.57029 8481 ft 55 kts 155°
2026-05-04 03:21 19.34582 -99.56995 8481 ft 0 kts 157°
2026-05-04 03:21 19.34539 -99.57041 8485 ft 16 kts 233°
2026-05-04 03:21 19.34448 -99.57103 8483 ft 16 kts 201°
2026-05-04 03:22 19.34339 -99.57093 8481 ft 15 kts 188°